Вернуться в каталог

COSMOS 2615

АктивенВоенныеSSO
NORAD 68826·PAYLOAD·🇷🇺 Russia

Запущен Apr 23, 2026 с Plesetsk Cosmodrome

Loading…

Ближайшие Пролёты (ближайшие 24 часа)

TLE

СвежийSource: Space-Track

Эпоха: Sep 14, 2026, 12:30 UTC

1 68826U 26090A   26257.52090395  .00033528  00000-0  13444-3 0  9992
2 68826  96.6347 172.8285 0011318  66.1437 294.1021 15.86336452 22838

Отслеживайте COSMOS 2615 в реальном времени с AllMySat

Download on the App Store